Weather in Leninka

Russia / Tyumen Oblast     56°03′11″N   70°24′58″E
temp.,
°C
wind,
m/s
gust,
m/s
humid.,
%
clouds,
%
prec.,
mm/h
press.,
hPa
HPBL,
m
22 may, sun
sun2223:00+15ese6147549 0.0 992233
02:00+15sse5128076 0.1 991306
05:00+12wsw51187100 0.8 994521
08:00+13sw6869100 0.1 996944
11:00+11sw5875100 0.3 998917
14:00+11s5875100 1.0 999921
17:00+12w786382 2.0 10001254
20:00+9w596885 0.0 1003441
23 may, mon
mon2323:00+6s497796 0.0 1005195
02:00+7ssw61278100 0.0 1007697
05:00+7ssw612810 0.0 1009507
08:00+11ssw7106084 0.0 10111170
11:00+14s81247100 0.0 10112047
14:00+15ssw81453100 0.1 10101916
17:00+11s81568100 0.2 1009859
20:00+14ssw81478100 0.0 10091000
24 may, tue
tue2423:00+14s91877100 0.0 1009727
02:00+15ssw81669100 0.0 1010702
05:00+12s5118565 0.0 1012279
08:00+16ssw696714 0.1 1013559
11:00+22s710525 0.1 1013981
14:00+25ssw711405 0.0 10132451
17:00+25ssw484451 0.0 10132309
20:00+20s33615 0.0 101435
25 may, wed
wed2523:00+17s4458100 0.0 101541
02:00+16s3358100 0.0 101641
05:00+15s1159100 0.0 101711
08:00+21sse3450100 0.0 1017240
11:00+26sse463959 0.0 1017892
14:00+26se5635100 0.0 10162124
17:00+26se464198 0.0 10161001
20:00+20ese41061100 0.0 1016179
26 may, thu
thu2623:00+18ese5135976 0.0 1015212
02:00+18ese5145993 0.0 1014293
05:00+16ese5146264 0.0 1013258
08:00+21se714582 0.0 1012578
11:00+26se913450 0.0 10101815
14:00+28se9144060 0.0 10081999
17:00+26se91542100 0.0 1006927
20:00+20sse5106613 0.8 1007225